Time,TemperatureF,DewpointF,PressureIn,WindDirection,WindDirectionDegrees,WindSpeedMPH,WindSpeedGustMPH,Humidity,HourlyPrecipIn,Conditions,Clouds,dailyrainin,SolarRadiationWatts/m^2,SoftwareType,DateUTC
2013-05-14 00:02:00,64.2,52.6,29.85,SSE,155,0.0,3.5,66,0.00,CLR,,0.00,0.0,WeatherDisplay:10.37,2013-05-14 05:02:00,
2013-05-14 00:07:00,64.0,52.8,29.85,SSE,155,0.0,0.0,67,0.00,CLR,,0.00,0.0,WeatherDisplay:10.37,2013-05-14 05:07:00,
2013-05-14 00:12:00,63.7,52.5,29.85,SSE,155,0.0,0.0,67,0.00,CLR,,0.00,0.0,WeatherDisplay:10.37,2013-05-14 05:12:00,
2013-05-14 00:17:00,63.5,52.7,29.85,ESE,115,0.0,3.5,68,0.00,CLR,,0.00,0.0,WeatherDisplay:10.37,2013-05-14 05:17:00,
2013-05-14 00:23:00,63.3,53.0,29.85,SSE,161,0.3,2.3,69,0.00,CLR,,0.00,0.0,WeatherDisplay:10.37,2013-05-14 05:23:00,
2013-05-14 00:28:00,63.2,52.9,29.85,SSE,161,0.0,0.0,69,0.00,CLR,,0.00,0.0,WeatherDisplay:10.37,2013-05-14 05:28:00,
2013-05-14 00:33:00,63.0,53.1,29.84,SSE,161,0.0,0.0,70,0.00,CLR,,0.00,0.0,WeatherDisplay:10.37,2013-05-14 05:33:00,
2013-05-14 00:38:00,62.9,53.0,29.84,SSE,161,0.0,0.0,70,0.00,CLR,,0.00,0.0,WeatherDisplay:10.37,2013-05-14 05:38:00,
2013-05-14 00:44:00,62.9,53.4,29.84,SSE,158,0.6,2.3,71,0.00,CLR,,0.00,0.0,WeatherDisplay:10.37,2013-05-14 05:44:00,
2013-05-14 00:49:00,62.8,53.3,29.84,SSE,158,0.0,0.0,71,0.00,CLR,,0.00,0.0,WeatherDisplay:10.37,2013-05-14 05:49:00,
2013-05-14 00:54:00,62.7,53.5,29.84,SSE,166,0.0,1.0,72,0.00,CLR,,0.00,0.0,WeatherDisplay:10.37,2013-05-14 05:54:00,
2013-05-14 00:59:00,62.6,53.4,29.83,SE,137,0.9,2.0,72,0.00,CLR,,0.00,0.0,WeatherDisplay:10.37,2013-05-14 05:59:00,
2013-05-14 01:05:00,62.5,53.3,29.83,SE,137,0.0,0.0,72,0.00,CLR,,0.00,0.0,WeatherDisplay:10.37,2013-05-14 06:05:00,
2013-05-14 01:10:00,62.4,53.6,29.83,SE,137,0.0,0.0,73,0.00,CLR,,0.00,0.0,WeatherDisplay:10.37,2013-05-14 06:10:00,
2013-05-14 01:15:00,62.3,53.5,29.83,SE,137,0.0,0.0,73,0.00,CLR,,0.00,0.0,WeatherDisplay:10.37,2013-05-14 06:15:00,
2013-05-14 01:20:00,62.2,53.8,29.82,SSE,155,0.0,0.0,74,0.00,CLR,,0.00,0.0,WeatherDisplay:10.37,2013-05-14 06:20:00,
2013-05-14 01:26:00,62.2,53.8,29.82,SSE,155,0.0,0.0,74,0.00,CLR,,0.00,0.0,WeatherDisplay:10.37,2013-05-14 06:26:00,
2013-05-14 01:31:00,62.2,53.8,29.82,SSE,159,0.2,2.3,74,0.00,CLR,,0.00,0.0,WeatherDisplay:10.37,2013-05-14 06:31:00,
2013-05-14 01:36:00,62.3,53.9,29.82,SSE,159,0.0,0.0,74,0.00,CLR,,0.00,0.0,WeatherDisplay:10.37,2013-05-14 06:36:00,
2013-05-14 01:41:00,62.3,53.9,29.82,SSE,159,0.0,0.0,74,0.00,CLR,,0.00,0.0,WeatherDisplay:10.37,2013-05-14 06:41:00,
2013-05-14 01:47:00,62.3,54.3,29.81,SSE,159,0.0,0.0,75,0.00,CLR,,0.00,0.0,WeatherDisplay:10.37,2013-05-14 06:47:00,
2013-05-14 01:52:00,62.2,54.5,29.81,South,172,0.3,3.5,76,0.00,CLR,,0.00,0.0,WeatherDisplay:10.37,2013-05-14 06:52:00,
2013-05-14 01:57:00,62.3,54.6,29.81,South,172,0.0,0.0,76,0.00,CLR,,0.00,0.0,WeatherDisplay:10.37,2013-05-14 06:57:00,
2013-05-14 02:02:00,62.6,54.9,29.81,SSE,155,0.2,1.2,76,0.00,CLR,,0.00,0.0,WeatherDisplay:10.37,2013-05-14 07:02:00,
2013-05-14 02:08:00,63.1,55.0,29.81,SSE,156,0.0,0.0,75,0.00,CLR,,0.00,0.0,WeatherDisplay:10.37,2013-05-14 07:08:00,
2013-05-14 02:13:00,63.6,55.5,29.80,ESE,114,0.0,0.0,75,0.00,CLR,,0.00,0.0,WeatherDisplay:10.37,2013-05-14 07:13:00,
2013-05-14 02:18:00,63.7,55.3,29.80,ESE,114,0.0,0.0,74,0.00,CLR,,0.00,0.0,WeatherDisplay:10.37,2013-05-14 07:18:00,
2013-05-14 02:24:00,64.0,55.5,29.80,SSE,167,0.1,3.5,74,0.00,CLR,,0.00,0.0,WeatherDisplay:10.37,2013-05-14 07:24:00,
2013-05-14 02:29:00,64.2,55.7,29.80,SSE,167,0.0,0.0,74,0.00,CLR,,0.00,0.0,WeatherDisplay:10.37,2013-05-14 07:29:00,
2013-05-14 02:34:00,64.5,55.7,29.80,SE,142,0.4,2.3,73,0.00,CLR,,0.00,0.0,WeatherDisplay:10.37,2013-05-14 07:34:00,
2013-05-14 02:39:00,64.7,55.8,29.80,South,187,0.4,6.9,73,0.00,CLR,,0.00,0.0,WeatherDisplay:10.37,2013-05-14 07:39:00,
2013-05-14 02:45:00,64.9,56.0,29.80,SSE,147,0.0,1.2,73,0.00,CLR,,0.00,0.0,WeatherDisplay:10.37,2013-05-14 07:45:00,
2013-05-14 02:50:00,65.1,55.8,29.80,SE,146,0.3,2.3,72,0.00,CLR,,0.00,0.0,WeatherDisplay:10.37,2013-05-14 07:50:00,
2013-05-14 02:55:00,65.2,55.9,29.80,SSE,149,0.0,1.2,72,0.00,CLR,,0.00,0.0,WeatherDisplay:10.37,2013-05-14 07:55:00,
2013-05-14 03:00:00,65.2,55.9,29.79,SSE,149,0.0,0.0,72,0.00,CLR,,0.00,0.0,WeatherDisplay:10.37,2013-05-14 08:00:00,
2013-05-14 03:06:00,65.2,55.9,29.79,SSE,149,0.1,1.0,72,0.00,CLR,,0.00,0.0,WeatherDisplay:10.37,2013-05-14 08:06:00,
2013-05-14 03:11:00,65.1,55.8,29.79,SSE,156,0.1,1.2,72,0.00,CLR,,0.00,0.0,WeatherDisplay:10.37,2013-05-14 08:11:00,
2013-05-14 03:16:00,65.2,55.9,29.79,SSE,156,0.0,0.0,72,0.00,CLR,,0.00,0.0,WeatherDisplay:10.37,2013-05-14 08:16:00,
2013-05-14 03:21:00,65.3,56.0,29.79,SSW,198,0.0,2.3,72,0.00,CLR,,0.00,0.0,WeatherDisplay:10.37,2013-05-14 08:21:00,
2013-05-14 03:27:00,65.3,56.0,29.79,South,184,1.0,5.0,72,0.00,RA,RA,0.00,0.0,WeatherDisplay:10.37,2013-05-14 08:27:00,
2013-05-14 03:32:00,65.3,56.0,29.79,SSE,151,0.0,0.0,72,0.00,CLR,,0.00,0.0,WeatherDisplay:10.37,2013-05-14 08:32:00,
2013-05-14 03:37:00,65.2,55.9,29.79,SW,236,0.0,0.0,72,0.00,CLR,,0.00,0.0,WeatherDisplay:10.37,2013-05-14 08:37:00,
2013-05-14 03:42:00,65.1,56.2,29.79,SSW,202,0.0,0.0,73,0.00,CLR,,0.00,0.0,WeatherDisplay:10.37,2013-05-14 08:42:00,
2013-05-14 03:48:00,65.0,56.1,29.79,SSW,202,0.0,0.0,73,0.00,CLR,,0.00,0.0,WeatherDisplay:10.37,2013-05-14 08:48:00,
2013-05-14 03:53:00,64.9,56.0,29.79,South,189,0.0,0.0,73,0.00,CLR,,0.00,0.0,WeatherDisplay:10.37,2013-05-14 08:53:00,
2013-05-14 03:58:00,64.8,55.9,29.79,South,189,0.0,0.0,73,0.00,CLR,,0.00,0.0,WeatherDisplay:10.37,2013-05-14 08:58:00,
2013-05-14 04:03:00,64.8,55.9,29.79,SSE,152,0.0,0.0,73,0.00,CLR,,0.00,0.0,WeatherDisplay:10.37,2013-05-14 09:03:00,
2013-05-14 04:09:00,64.6,55.7,29.79,SSE,152,0.0,1.2,73,0.00,CLR,,0.00,0.0,WeatherDisplay:10.37,2013-05-14 09:09:00,
2013-05-14 04:14:00,64.4,55.9,29.79,SSE,152,0.0,0.0,74,0.00,CLR,,0.00,0.0,WeatherDisplay:10.37,2013-05-14 09:14:00,
2013-05-14 04:19:00,64.2,55.7,29.79,SSE,152,0.0,0.0,74,0.00,CLR,,0.00,0.0,WeatherDisplay:10.37,2013-05-14 09:19:00,
2013-05-14 04:24:00,64.0,55.9,29.78,East,90,0.4,0.0,75,0.00,CLR,,0.00,0.0,WeatherDisplay:10.37,2013-05-14 09:24:00,
2013-05-14 04:30:00,63.8,56.1,29.78,East,90,0.0,0.0,76,0.00,CLR,,0.00,0.0,WeatherDisplay:10.37,2013-05-14 09:30:00,
2013-05-14 04:35:00,63.7,56.0,29.78,East,90,0.0,0.0,76,0.00,CLR,,0.00,0.0,WeatherDisplay:10.37,2013-05-14 09:35:00,
2013-05-14 04:40:00,63.5,55.8,29.78,ESE,117,0.0,2.3,76,0.00,CLR,,0.00,0.0,WeatherDisplay:10.37,2013-05-14 09:40:00,
2013-05-14 04:45:00,63.4,55.7,29.78,ESE,115,0.0,0.0,76,0.00,CLR,,0.00,0.0,WeatherDisplay:10.37,2013-05-14 09:45:00,
2013-05-14 04:51:00,63.3,56.0,29.78,ESE,115,0.1,2.0,77,0.00,CLR,,0.00,0.0,WeatherDisplay:10.37,2013-05-14 09:51:00,
2013-05-14 04:56:00,63.3,56.0,29.78,ESE,115,0.0,1.2,77,0.00,CLR,,0.00,0.0,WeatherDisplay:10.37,2013-05-14 09:56:00,
2013-05-14 05:01:00,63.2,55.9,29.78,ESE,115,0.0,0.0,77,0.00,CLR,,0.00,0.0,WeatherDisplay:10.37,2013-05-14 10:01:00,
2013-05-14 05:06:00,63.1,55.8,29.78,SE,146,0.0,0.0,77,0.00,CLR,,0.00,0.0,WeatherDisplay:10.37,2013-05-14 10:06:00,
2013-05-14 05:12:00,62.9,55.6,29.78,SE,146,0.0,0.0,77,0.00,RA,RA,0.00,0.0,WeatherDisplay:10.37,2013-05-14 10:12:00,
2013-05-14 05:17:00,62.7,55.7,29.78,SE,146,0.0,0.0,78,0.00,CLR,,0.00,0.0,WeatherDisplay:10.37,2013-05-14 10:17:00,
2013-05-14 05:22:00,62.5,55.5,29.78,SE,146,0.0,1.0,78,0.00,RA,RA,0.00,0.0,WeatherDisplay:10.37,2013-05-14 10:22:00,
2013-05-14 05:27:00,62.3,55.7,29.78,SE,146,0.0,0.0,79,0.00,RA,RA,0.00,0.0,WeatherDisplay:10.37,2013-05-14 10:27:00,
2013-05-14 05:32:00,62.1,55.5,29.78,SE,146,0.0,0.0,79,0.00,CLR,,0.00,0.0,WeatherDisplay:10.37,2013-05-14 10:32:00,
2013-05-14 05:37:00,61.9,55.6,29.78,SE,146,0.0,0.0,80,0.00,RA,RA,0.00,0.0,WeatherDisplay:10.37,2013-05-14 10:37:00,
2013-05-14 05:42:00,61.6,55.4,29.78,SE,146,0.0,0.0,80,0.00,CLR,,0.00,0.0,WeatherDisplay:10.37,2013-05-14 10:42:00,
2013-05-14 05:47:00,61.4,55.5,29.78,SE,146,0.0,0.0,81,0.00,CLR,,0.00,0.0,WeatherDisplay:10.37,2013-05-14 10:47:00,
2013-05-14 05:52:00,61.2,55.3,29.78,SE,146,0.0,0.0,81,0.00,CLR,,0.00,7.0,WeatherDisplay:10.37,2013-05-14 10:52:00,
2013-05-14 05:57:00,61.2,55.7,29.78,SE,146,0.0,0.0,82,0.00,CLR,,0.00,7.0,WeatherDisplay:10.37,2013-05-14 10:57:00,
2013-05-14 06:03:00,61.2,55.3,29.78,SE,146,0.0,0.0,81,0.00,FEW,,0.00,9.8,WeatherDisplay:10.37,2013-05-14 11:03:00,
2013-05-14 06:08:00,61.1,55.6,29.78,SE,146,0.0,0.0,82,0.00,FEW,,0.00,12.6,WeatherDisplay:10.37,2013-05-14 11:08:00,
2013-05-14 06:13:00,61.0,55.5,29.78,SE,146,0.0,0.0,82,0.00,FEW,,0.00,16.8,WeatherDisplay:10.37,2013-05-14 11:13:00,
2013-05-14 06:19:00,61.1,55.6,29.78,SE,146,0.0,0.0,82,0.00,FEW,,0.00,22.4,WeatherDisplay:10.37,2013-05-14 11:19:00,
2013-05-14 06:24:00,61.0,55.5,29.78,SE,146,0.0,0.0,82,0.00,FEW,,0.00,25.2,WeatherDisplay:10.37,2013-05-14 11:24:00,
2013-05-14 06:29:00,60.9,55.4,29.78,SE,146,0.0,0.0,82,0.00,FEW,,0.00,26.6,WeatherDisplay:10.37,2013-05-14 11:29:00,
2013-05-14 06:34:00,60.8,55.6,29.78,SE,146,0.0,0.0,83,0.00,FEW,,0.00,29.4,WeatherDisplay:10.37,2013-05-14 11:34:00,
2013-05-14 06:40:00,60.8,55.6,29.78,SE,146,0.0,0.0,83,0.00,FEW,,0.00,35.0,WeatherDisplay:10.37,2013-05-14 11:40:00,
2013-05-14 06:45:00,60.8,55.6,29.78,SE,146,0.0,0.0,83,0.00,FEW,,0.00,39.2,WeatherDisplay:10.37,2013-05-14 11:45:00,
2013-05-14 06:50:00,60.8,55.9,29.78,SE,146,0.0,0.0,84,0.00,FEW,,0.00,42.0,WeatherDisplay:10.37,2013-05-14 11:50:00,
2013-05-14 06:55:00,60.8,55.9,29.78,SE,146,0.0,0.0,84,0.00,FEW,,0.00,84.0,WeatherDisplay:10.37,2013-05-14 11:55:00,
2013-05-14 07:01:00,61.0,56.1,29.78,SE,146,0.0,0.0,84,0.00,FEW,,0.00,155.4,WeatherDisplay:10.37,2013-05-14 12:01:00,
2013-05-14 07:06:00,61.4,56.5,29.78,SE,146,0.0,0.0,84,0.00,FEW,,0.00,133.0,WeatherDisplay:10.37,2013-05-14 12:06:00,
2013-05-14 07:11:00,61.9,56.7,29.78,SE,146,0.0,0.0,83,0.00,FEW,,0.00,100.8,WeatherDisplay:10.37,2013-05-14 12:11:00,
2013-05-14 07:16:00,62.4,56.8,29.79,SE,146,0.0,0.0,82,0.00,FEW,,0.00,56.0,WeatherDisplay:10.37,2013-05-14 12:16:00,
2013-05-14 07:22:00,62.8,56.8,29.79,SE,146,0.0,0.0,81,0.00,RA,RA,0.00,51.8,WeatherDisplay:10.37,2013-05-14 12:22:00,
2013-05-14 07:27:00,63.1,56.8,29.79,SE,146,0.0,0.0,80,0.00,RA,RA,0.00,75.6,WeatherDisplay:10.37,2013-05-14 12:27:00,
2013-05-14 07:32:00,63.5,57.2,29.78,SE,146,0.0,0.0,80,0.00,FEW,,0.00,86.8,WeatherDisplay:10.37,2013-05-14 12:32:00,
2013-05-14 07:37:00,63.9,57.3,29.78,SE,146,0.0,0.0,79,0.00,FEW,,0.00,86.8,WeatherDisplay:10.37,2013-05-14 12:37:00,
2013-05-14 07:42:00,64.4,57.4,29.79,SE,146,0.0,0.0,78,0.00,FEW,,0.00,168.0,WeatherDisplay:10.37,2013-05-14 12:42:00,
2013-05-14 07:47:00,64.8,57.8,29.78,SE,146,0.0,0.0,78,0.00,FEW,,0.00,68.6,WeatherDisplay:10.37,2013-05-14 12:47:00,
2013-05-14 07:53:00,65.3,58.3,29.78,SSE,147,0.0,0.0,78,0.00,FEW,,0.00,64.4,WeatherDisplay:10.37,2013-05-14 12:53:00,
2013-05-14 07:58:00,65.7,58.3,29.78,SSE,147,0.0,1.2,77,0.00,FEW,,0.00,84.0,WeatherDisplay:10.37,2013-05-14 12:58:00,
2013-05-14 08:03:00,66.3,58.5,29.78,SSE,147,0.0,0.0,76,0.00,FEW,,0.00,106.4,WeatherDisplay:10.37,2013-05-14 13:03:00,
2013-05-14 08:08:00,66.9,58.7,29.78,SE,146,0.0,1.2,75,0.00,FEW,,0.00,107.8,WeatherDisplay:10.37,2013-05-14 13:08:00,
2013-05-14 08:14:00,67.4,58.8,29.78,SE,146,0.0,0.0,74,0.00,FEW,,0.00,68.6,WeatherDisplay:10.37,2013-05-14 13:14:00,
2013-05-14 08:19:00,68.0,59.4,29.78,SE,146,0.0,0.0,74,0.00,FEW,,0.00,86.8,WeatherDisplay:10.37,2013-05-14 13:19:00,
2013-05-14 08:24:00,68.4,59.0,29.78,SE,146,0.0,1.2,72,0.00,FEW,,0.00,74.2,WeatherDisplay:10.37,2013-05-14 13:24:00,
2013-05-14 08:29:00,68.9,59.1,29.78,SE,141,0.3,1.2,71,0.00,FEW,,0.00,71.4,WeatherDisplay:10.37,2013-05-14 13:29:00,
2013-05-14 08:35:00,69.5,59.7,29.77,SE,141,0.2,1.2,71,0.00,FEW,,0.00,93.8,WeatherDisplay:10.37,2013-05-14 13:35:00,
2013-05-14 08:40:00,69.9,59.7,29.78,SE,141,0.2,2.0,70,0.00,FEW,,0.00,74.2,WeatherDisplay:10.37,2013-05-14 13:40:00,
2013-05-14 08:45:00,70.3,60.1,29.77,SSE,162,1.3,4.0,70,0.00,FEW,,0.00,74.2,WeatherDisplay:10.37,2013-05-14 13:45:00,
2013-05-14 08:50:00,70.5,59.8,29.78,SSW,202,0.0,2.3,69,0.00,FEW,,0.00,75.6,WeatherDisplay:10.37,2013-05-14 13:50:00,
2013-05-14 08:56:00,70.7,60.0,29.78,SSE,148,0.0,1.2,69,0.00,FEW,,0.00,78.4,WeatherDisplay:10.37,2013-05-14 13:56:00,
2013-05-14 09:01:00,70.9,59.8,29.78,SSE,149,0.3,3.5,68,0.00,FEW,,0.00,78.4,WeatherDisplay:10.37,2013-05-14 14:01:00,
2013-05-14 09:06:00,71.1,60.4,29.78,SSE,149,0.0,0.0,69,0.00,FEW,,0.00,84.0,WeatherDisplay:10.37,2013-05-14 14:06:00,
2013-05-14 09:12:00,71.5,60.4,29.78,SSE,149,0.0,0.0,68,0.00,FEW,,0.00,86.8,WeatherDisplay:10.37,2013-05-14 14:12:00,
2013-05-14 09:17:00,72.0,61.3,29.78,SSE,157,0.1,1.2,69,0.00,FEW,,0.00,86.8,WeatherDisplay:10.37,2013-05-14 14:17:00,
2013-05-14 09:22:00,72.6,61.8,29.77,SSE,152,0.0,2.3,69,0.00,FEW,,0.00,93.8,WeatherDisplay:10.37,2013-05-14 14:22:00,
2013-05-14 09:27:00,73.0,61.8,29.77,SSE,152,0.3,2.0,68,0.00,FEW,,0.00,260.4,WeatherDisplay:10.37,2013-05-14 14:27:00,
2013-05-14 09:33:00,73.4,61.3,29.77,SSE,158,0.0,3.5,66,0.00,FEW,,0.00,100.8,WeatherDisplay:10.37,2013-05-14 14:33:00,
2013-05-14 09:38:00,73.8,61.3,29.77,SSE,150,0.3,2.3,65,0.00,FEW,,0.00,86.8,WeatherDisplay:10.37,2013-05-14 14:38:00,
2013-05-14 09:43:00,74.3,62.2,29.76,SSE,150,0.1,1.0,66,0.00,FEW,,0.00,88.2,WeatherDisplay:10.37,2013-05-14 14:43:00,
2013-05-14 09:48:00,74.6,62.9,29.76,SSE,150,0.0,0.0,67,0.00,FEW,,0.00,88.2,WeatherDisplay:10.37,2013-05-14 14:48:00,
2013-05-14 09:54:00,75.2,62.2,29.76,SSE,154,0.7,6.9,64,0.00,FEW,,0.00,91.0,WeatherDisplay:10.37,2013-05-14 14:54:00,
2013-05-14 09:59:00,75.6,61.7,29.76,SSE,163,2.1,5.8,62,0.00,FEW,,0.00,93.8,WeatherDisplay:10.37,2013-05-14 14:59:00,
2013-05-14 10:04:00,76.0,62.9,29.75,SSE,151,0.0,3.5,64,0.00,FEW,,0.00,110.6,WeatherDisplay:10.37,2013-05-14 15:04:00,
2013-05-14 10:09:00,76.6,62.6,29.75,South,182,2.3,5.8,62,0.00,FEW,,0.00,354.2,WeatherDisplay:10.37,2013-05-14 15:09:00,
2013-05-14 10:15:00,77.1,63.5,29.76,SE,144,0.0,1.2,63,0.00,FEW,,0.00,123.2,WeatherDisplay:10.37,2013-05-14 15:15:00,
2013-05-14 10:20:00,77.7,62.7,29.75,ESE,103,0.4,2.3,60,0.00,FEW,,0.00,165.2,WeatherDisplay:10.37,2013-05-14 15:20:00,
2013-05-14 10:25:00,78.3,62.8,29.75,SSW,196,1.7,3.5,59,0.00,FEW,,0.00,145.6,WeatherDisplay:10.37,2013-05-14 15:25:00,
2013-05-14 10:30:00,78.8,65.1,29.75,WSW,240,0.0,0.0,63,0.00,FEW,,0.00,1094.8,WeatherDisplay:10.37,2013-05-14 15:30:00,
2013-05-14 10:36:00,79.5,63.9,29.75,SSE,156,1.3,3.5,59,0.00,FEW,,0.00,1122.8,WeatherDisplay:10.37,2013-05-14 15:36:00,
2013-05-14 10:41:00,79.9,64.3,29.75,SSE,148,0.1,2.0,59,0.00,FEW,,0.00,256.2,WeatherDisplay:10.37,2013-05-14 15:41:00,
2013-05-14 10:46:00,80.2,64.1,29.75,South,183,0.0,1.2,58,0.00,FEW,,0.00,1159.2,WeatherDisplay:10.37,2013-05-14 15:46:00,
2013-05-14 10:51:00,80.8,66.1,29.75,SSE,154,0.0,0.0,61,0.00,FEW,,0.00,1178.8,WeatherDisplay:10.37,2013-05-14 15:51:00,
2013-05-14 10:57:00,81.6,65.3,29.75,SSE,160,1.0,7.0,58,0.00,RA,RA,0.00,1195.6,WeatherDisplay:10.37,2013-05-14 15:57:00,
2013-05-14 11:02:00,82.2,66.0,29.75,SE,126,0.1,1.2,58,0.00,FEW,,0.00,1211.0,WeatherDisplay:10.37,2013-05-14 16:02:00,
2013-05-14 11:07:00,82.9,64.5,29.74,SSE,162,0.9,3.5,54,0.00,FEW,,0.00,1227.8,WeatherDisplay:10.37,2013-05-14 16:07:00,
2013-05-14 11:12:00,83.6,64.1,29.75,SSW,201,0.4,5.8,52,0.00,FEW,,0.00,1244.6,WeatherDisplay:10.37,2013-05-14 16:12:00,
2013-05-14 11:18:00,84.1,64.6,29.75,SE,139,0.6,2.3,52,0.00,FEW,,0.00,1257.2,WeatherDisplay:10.37,2013-05-14 16:18:00,
2013-05-14 11:23:00,84.8,66.3,29.75,WSW,240,0.6,2.3,54,0.00,FEW,,0.00,1269.8,WeatherDisplay:10.37,2013-05-14 16:23:00,
2013-05-14 11:28:00,85.1,65.5,29.74,SW,214,0.0,2.3,52,0.00,FEW,,0.00,1276.8,WeatherDisplay:10.37,2013-05-14 16:28:00,
2013-05-14 11:33:00,85.7,64.3,29.74,South,190,2.4,3.5,49,0.00,FEW,,0.00,1289.4,WeatherDisplay:10.37,2013-05-14 16:33:00,
2013-05-14 11:39:00,86.2,66.5,29.74,SSE,159,2.0,3.5,52,0.00,FEW,,0.00,1306.2,WeatherDisplay:10.37,2013-05-14 16:39:00,
2013-05-14 11:44:00,86.4,66.1,29.73,South,180,0.0,0.0,51,0.00,FEW,,0.00,1321.6,WeatherDisplay:10.37,2013-05-14 16:44:00,
2013-05-14 11:49:00,86.7,63.4,29.73,SE,140,0.8,4.6,46,0.00,FEW,,0.00,1331.4,WeatherDisplay:10.37,2013-05-14 16:49:00,
2013-05-14 11:54:00,87.0,64.3,29.73,SE,133,0.3,6.9,47,0.00,FEW,,0.00,1338.4,WeatherDisplay:10.37,2013-05-14 16:54:00,
2013-05-14 12:00:00,87.7,66.8,29.72,South,169,2.2,6.9,50,0.00,FEW,,0.00,1353.8,WeatherDisplay:10.37,2013-05-14 17:00:00,
2013-05-14 12:05:00,87.8,65.7,29.72,ESE,113,0.1,1.2,48,0.00,FEW,,0.00,1367.8,WeatherDisplay:10.37,2013-05-14 17:05:00,
2013-05-14 12:10:00,88.4,64.4,29.72,SE,128,0.1,2.3,45,0.00,FEW,,0.00,1373.4,WeatherDisplay:10.37,2013-05-14 17:10:00,
2013-05-14 12:15:00,89.1,65.6,29.71,South,178,1.1,3.5,46,0.00,FEW,,0.00,1383.2,WeatherDisplay:10.37,2013-05-14 17:15:00,
2013-05-14 12:21:00,88.9,66.1,29.72,WSW,258,2.6,6.9,47,0.00,FEW,,0.00,1386.0,WeatherDisplay:10.37,2013-05-14 17:21:00,
2013-05-14 12:26:00,89.2,65.7,29.72,South,186,0.0,3.5,46,0.00,FEW,,0.00,1390.2,WeatherDisplay:10.37,2013-05-14 17:26:00,
2013-05-14 12:31:00,89.3,65.2,29.71,SE,125,0.2,2.3,45,0.00,FEW,,0.00,1395.8,WeatherDisplay:10.37,2013-05-14 17:31:00,
2013-05-14 12:36:00,89.9,65.7,29.71,SSE,158,0.3,2.3,45,0.00,FEW,,0.00,1402.8,WeatherDisplay:10.37,2013-05-14 17:36:00,
2013-05-14 12:42:00,90.3,66.1,29.71,SSE,162,1.0,7.0,45,0.00,RA,RA,0.00,1400.0,WeatherDisplay:10.37,2013-05-14 17:42:00,
2013-05-14 12:47:00,90.2,66.6,29.70,SE,140,0.8,2.0,46,0.00,FEW,,0.00,1407.0,WeatherDisplay:10.37,2013-05-14 17:47:00,
2013-05-14 12:52:00,90.8,67.2,29.70,SSE,155,1.0,8.0,46,0.00,RA,RA,0.00,1409.8,WeatherDisplay:10.37,2013-05-14 17:52:00,
2013-05-14 12:57:00,91.2,64.2,29.70,SSE,152,0.0,8.0,41,0.00,RA,RA,0.00,1415.4,WeatherDisplay:10.37,2013-05-14 17:57:00,
2013-05-14 13:02:00,91.1,65.5,29.70,SSE,147,1.4,5.8,43,0.00,FEW,,0.00,1419.6,WeatherDisplay:10.37,2013-05-14 18:02:00,
2013-05-14 13:07:00,91.8,65.4,29.69,SSE,153,1.0,4.6,42,0.00,FEW,,0.00,1418.2,WeatherDisplay:10.37,2013-05-14 18:07:00,
2013-05-14 13:12:00,92.0,64.2,29.69,WNW,283,0.1,3.5,40,0.00,FEW,,0.00,1405.6,WeatherDisplay:10.37,2013-05-14 18:12:00,
2013-05-14 13:17:00,92.5,66.1,29.69,SSE,150,0.8,5.8,42,0.00,FEW,,0.00,1415.4,WeatherDisplay:10.37,2013-05-14 18:17:00,
2013-05-14 13:23:00,92.8,64.2,29.69,South,177,0.6,2.3,39,0.00,FEW,,0.00,1409.8,WeatherDisplay:10.37,2013-05-14 18:23:00,
2013-05-14 13:28:00,93.0,65.1,29.68,ESE,118,1.6,3.5,40,0.00,FEW,,0.00,1400.0,WeatherDisplay:10.37,2013-05-14 18:28:00,
2013-05-14 13:33:00,92.7,66.2,29.68,SSE,168,0.3,1.2,42,0.00,FEW,,0.00,1412.6,WeatherDisplay:10.37,2013-05-14 18:33:00,
2013-05-14 13:38:00,93.2,65.3,29.68,ENE,77,1.6,5.8,40,0.00,FEW,,0.00,1395.8,WeatherDisplay:10.37,2013-05-14 18:38:00,
2013-05-14 13:44:00,92.9,67.8,29.68,SSE,156,0.5,2.3,44,0.00,FEW,,0.00,1405.6,WeatherDisplay:10.37,2013-05-14 18:44:00,
2013-05-14 13:49:00,93.3,63.9,29.68,SSE,159,1.5,8.1,38,0.00,FEW,,0.00,1363.6,WeatherDisplay:10.37,2013-05-14 18:49:00,
2013-05-14 13:54:00,93.1,63.7,29.68,SSE,150,3.9,6.9,38,0.00,FEW,,0.00,1393.0,WeatherDisplay:10.37,2013-05-14 18:54:00,
2013-05-14 13:59:00,93.3,66.8,29.68,South,175,0.5,9.2,42,0.00,FEW,,0.00,1363.6,WeatherDisplay:10.37,2013-05-14 18:59:00,
2013-05-14 14:05:00,94.1,63.1,29.67,ENE,62,1.5,5.8,36,0.00,FEW,,0.00,1373.4,WeatherDisplay:10.37,2013-05-14 19:05:00,
2013-05-14 14:10:00,93.9,65.2,29.67,SSE,150,0.4,4.6,39,0.00,FEW,,0.00,1377.6,WeatherDisplay:10.37,2013-05-14 19:10:00,
2013-05-14 14:15:00,93.8,62.0,29.67,South,187,4.6,11.5,35,0.00,FEW,,0.00,1373.4,WeatherDisplay:10.37,2013-05-14 19:15:00,
2013-05-14 14:20:00,94.0,65.3,29.67,South,187,2.8,9.0,39,0.00,FEW,,0.00,1370.6,WeatherDisplay:10.37,2013-05-14 19:20:00,
2013-05-14 14:26:00,93.5,64.1,29.67,SSE,153,1.2,3.5,38,0.00,FEW,,0.00,908.6,WeatherDisplay:10.37,2013-05-14 19:26:00,
2013-05-14 14:31:00,93.9,64.4,29.67,South,175,2.9,6.9,38,0.00,FEW,,0.00,1341.2,WeatherDisplay:10.37,2013-05-14 19:31:00,
2013-05-14 14:36:00,94.3,64.0,29.66,ENE,59,3.4,10.0,37,0.00,FEW,,0.00,1191.4,WeatherDisplay:10.37,2013-05-14 19:36:00,
2013-05-14 14:41:00,94.5,65.0,29.66,SSE,155,1.8,6.0,38,0.00,FEW,,0.00,870.8,WeatherDisplay:10.37,2013-05-14 19:41:00,
2013-05-14 14:47:00,94.1,63.9,29.66,SSE,148,4.0,6.9,37,0.00,FEW,,0.00,1302.0,WeatherDisplay:10.37,2013-05-14 19:47:00,
2013-05-14 14:52:00,94.3,69.0,29.66,SE,143,0.2,9.2,44,0.00,FEW,,0.00,1295.0,WeatherDisplay:10.37,2013-05-14 19:52:00,
2013-05-14 14:57:00,94.7,62.8,29.66,SSW,209,4.9,8.1,35,0.00,FEW,,0.00,1276.8,WeatherDisplay:10.37,2013-05-14 19:57:00,
2013-05-14 15:02:00,95.0,63.9,29.65,SSE,157,0.1,2.0,36,0.00,BKN,,0.00,1240.4,WeatherDisplay:10.37,2013-05-14 20:02:00,
2013-05-14 15:08:00,95.1,63.9,29.65,SSW,196,4.9,9.2,36,0.00,BKN,,0.00,1233.4,WeatherDisplay:10.37,2013-05-14 20:08:00,
2013-05-14 15:13:00,94.7,63.6,29.65,SSW,198,2.5,8.1,36,0.00,BKN,,0.00,1243.2,WeatherDisplay:10.37,2013-05-14 20:13:00,
2013-05-14 15:18:00,94.3,63.2,29.65,SW,217,2.4,8.1,36,0.00,BKN,,0.00,1223.6,WeatherDisplay:10.37,2013-05-14 20:18:00,
2013-05-14 15:23:00,94.1,63.9,29.65,SE,139,2.7,19.6,37,0.00,BKN,,0.00,1195.6,WeatherDisplay:10.37,2013-05-14 20:23:00,
2013-05-14 15:29:00,94.0,64.5,29.65,SSE,163,0.6,4.0,38,0.00,BKN,,0.00,1122.8,WeatherDisplay:10.37,2013-05-14 20:29:00,
2013-05-14 15:34:00,94.1,66.1,29.65,NE,40,0.1,9.2,40,0.00,BKN,,0.00,1122.8,WeatherDisplay:10.37,2013-05-14 20:34:00,
2013-05-14 15:39:00,94.2,64.7,29.65,SSW,200,5.0,8.0,38,0.00,BKN,,0.00,1124.2,WeatherDisplay:10.37,2013-05-14 20:39:00,
2013-05-14 15:44:00,94.2,65.4,29.65,SW,218,1.9,3.5,39,0.00,BKN,,0.00,1110.2,WeatherDisplay:10.37,2013-05-14 20:44:00,
2013-05-14 15:50:00,95.0,63.9,29.64,SSW,198,1.0,4.6,36,0.00,BKN,,0.00,1117.2,WeatherDisplay:10.37,2013-05-14 20:50:00,
2013-05-14 15:55:00,94.9,64.6,29.64,SSW,205,2.2,6.9,37,0.00,BKN,,0.00,1100.4,WeatherDisplay:10.37,2013-05-14 20:55:00,
2013-05-14 16:00:00,94.6,64.3,29.64,South,187,0.9,4.0,37,0.00,BKN,,0.00,1097.6,WeatherDisplay:10.37,2013-05-14 21:00:00,
2013-05-14 16:05:00,94.4,64.9,29.64,ESE,119,4.5,4.5,38,0.00,BKN,,0.00,1085.0,WeatherDisplay:10.37,2013-05-14 21:05:00,
2013-05-14 16:11:00,94.6,61.9,29.63,SE,146,1.9,12.0,34,0.00,BKN,,0.00,1051.4,WeatherDisplay:10.37,2013-05-14 21:11:00,
2013-05-14 16:16:00,94.9,63.8,29.63,SSW,194,2.4,5.8,36,0.00,BKN,,0.00,1006.6,WeatherDisplay:10.37,2013-05-14 21:16:00,
2013-05-14 16:21:00,94.0,63.0,29.63,SW,219,4.1,16.1,36,0.00,BKN,,0.00,1006.6,WeatherDisplay:10.37,2013-05-14 21:21:00,
2013-05-14 16:26:00,94.1,62.3,29.63,SSE,157,3.0,5.0,35,0.00,BKN,,0.00,961.8,WeatherDisplay:10.37,2013-05-14 21:26:00,
2013-05-14 16:32:00,94.2,62.4,29.63,SSW,205,0.5,2.3,35,0.00,BKN,,0.00,928.2,WeatherDisplay:10.37,2013-05-14 21:32:00,
2013-05-14 16:37:00,94.3,62.4,29.63,South,189,3.5,11.5,35,0.00,BKN,,0.00,905.8,WeatherDisplay:10.37,2013-05-14 21:37:00,
2013-05-14 16:42:00,94.2,62.4,29.62,ESE,121,3.2,4.6,35,0.00,BKN,,0.00,900.2,WeatherDisplay:10.37,2013-05-14 21:42:00,
2013-05-14 16:47:00,94.1,62.3,29.62,South,173,2.8,10.4,35,0.00,BKN,,0.00,866.6,WeatherDisplay:10.37,2013-05-14 21:47:00,
2013-05-14 16:53:00,93.8,62.0,29.61,South,179,6.3,18.4,35,0.00,BKN,,0.00,639.8,WeatherDisplay:10.37,2013-05-14 21:53:00,
2013-05-14 16:58:00,93.5,60.1,29.61,SSE,161,2.3,9.2,33,0.00,BKN,,0.00,292.6,WeatherDisplay:10.37,2013-05-14 21:58:00,
2013-05-14 17:03:00,93.4,61.7,29.61,SSW,209,0.6,11.5,35,0.00,FEW,,0.00,221.2,WeatherDisplay:10.37,2013-05-14 22:03:00,
2013-05-14 17:09:00,93.3,60.7,29.61,SSW,204,5.1,12.7,34,0.00,FEW,,0.00,208.6,WeatherDisplay:10.37,2013-05-14 22:09:00,
2013-05-14 17:14:00,93.2,59.0,29.61,SSE,148,3.7,8.1,32,0.00,FEW,,0.00,158.2,WeatherDisplay:10.37,2013-05-14 22:14:00,
2013-05-14 17:19:00,93.1,61.4,29.61,East,97,3.0,6.0,35,0.00,FEW,,0.00,249.2,WeatherDisplay:10.37,2013-05-14 22:19:00,
2013-05-14 17:24:00,92.9,59.6,29.61,SE,145,6.4,20.7,33,0.00,FEW,,0.00,169.4,WeatherDisplay:10.37,2013-05-14 22:24:00,
2013-05-14 17:30:00,92.8,60.3,29.60,SSE,167,2.3,5.0,34,0.00,FEW,,0.00,302.4,WeatherDisplay:10.37,2013-05-14 22:30:00,
2013-05-14 17:35:00,92.7,60.2,29.60,SSW,209,3.2,10.4,34,0.00,FEW,,0.00,182.0,WeatherDisplay:10.37,2013-05-14 22:35:00,
2013-05-14 17:40:00,92.7,60.2,29.60,SSE,165,1.1,12.0,34,0.00,FEW,,0.00,116.2,WeatherDisplay:10.37,2013-05-14 22:40:00,
2013-05-14 17:45:00,92.5,59.2,29.60,South,188,6.0,11.5,33,0.00,FEW,,0.00,162.4,WeatherDisplay:10.37,2013-05-14 22:45:00,
2013-05-14 17:51:00,92.4,60.8,29.60,SE,124,0.1,4.6,35,0.00,FEW,,0.00,142.8,WeatherDisplay:10.37,2013-05-14 22:51:00,
2013-05-14 17:56:00,92.2,58.9,29.60,West,263,5.4,11.5,33,0.00,FEW,,0.00,142.8,WeatherDisplay:10.37,2013-05-14 22:56:00,
2013-05-14 18:01:00,92.0,60.4,29.60,ESE,109,2.2,3.5,35,0.00,SCT,,0.00,126.0,WeatherDisplay:10.37,2013-05-14 23:01:00,
2013-05-14 18:06:00,91.7,60.2,29.60,South,182,2.0,12.7,35,0.00,SCT,,0.00,116.2,WeatherDisplay:10.37,2013-05-14 23:06:00,
2013-05-14 18:12:00,91.4,59.9,29.60,NE,51,4.8,9.2,35,0.00,SCT,,0.00,110.6,WeatherDisplay:10.37,2013-05-14 23:12:00,
2013-05-14 18:17:00,91.1,60.4,29.60,ESE,115,1.5,3.5,36,0.00,SCT,,0.00,98.0,WeatherDisplay:10.37,2013-05-14 23:17:00,
2013-05-14 18:22:00,91.0,59.5,29.60,SSW,194,4.5,17.3,35,0.00,SCT,,0.00,74.2,WeatherDisplay:10.37,2013-05-14 23:22:00,
2013-05-14 18:27:00,90.8,59.4,29.60,East,100,1.8,9.0,35,0.00,SCT,,0.00,93.8,WeatherDisplay:10.37,2013-05-14 23:27:00,
2013-05-14 18:33:00,90.4,59.8,29.60,ENE,69,1.2,5.0,36,0.00,SCT,,0.00,120.4,WeatherDisplay:10.37,2013-05-14 23:33:00,
2013-05-14 18:38:00,90.4,59.0,29.59,South,186,0.9,4.6,35,0.00,SCT,,0.00,113.4,WeatherDisplay:10.37,2013-05-14 23:38:00,
2013-05-14 18:43:00,90.4,60.6,29.59,SSW,203,1.2,3.5,37,0.00,SCT,,0.00,98.0,WeatherDisplay:10.37,2013-05-14 23:43:00,
2013-05-14 18:48:00,90.2,58.8,29.59,SSW,200,1.4,3.5,35,0.00,SCT,,0.00,84.0,WeatherDisplay:10.37,2013-05-14 23:48:00,
2013-05-14 18:54:00,89.9,58.6,29.59,SSE,165,5.1,13.0,35,0.00,SCT,,0.00,75.6,WeatherDisplay:10.37,2013-05-14 23:54:00,
2013-05-14 18:59:00,89.9,60.1,29.59,South,188,0.2,3.5,37,0.00,SCT,,0.00,75.6,WeatherDisplay:10.37,2013-05-14 23:59:00,
2013-05-14 19:04:00,89.6,59.1,29.59,SSE,150,0.4,5.8,36,0.00,SCT,,0.00,64.4,WeatherDisplay:10.37,2013-05-15 00:04:00,
2013-05-14 19:09:00,89.4,58.9,29.59,SSE,150,0.5,1.0,36,0.00,SCT,,0.00,64.4,WeatherDisplay:10.37,2013-05-15 00:09:00,
2013-05-14 19:15:00,89.2,60.3,29.59,South,175,0.1,1.2,38,0.00,SCT,,0.00,61.6,WeatherDisplay:10.37,2013-05-15 00:15:00,
2013-05-14 19:20:00,88.9,60.0,29.59,SE,146,0.4,2.3,38,0.00,SCT,,0.00,54.6,WeatherDisplay:10.37,2013-05-15 00:20:00,
2013-05-14 19:25:00,88.8,59.2,29.59,South,173,0.9,7.0,37,0.00,SCT,,0.00,51.8,WeatherDisplay:10.37,2013-05-15 00:25:00,
2013-05-14 19:30:00,88.4,58.8,29.60,SSE,159,2.0,5.0,37,0.00,SCT,,0.00,39.2,WeatherDisplay:10.37,2013-05-15 00:30:00,
2013-05-14 19:36:00,88.1,58.6,29.59,SSE,158,1.4,5.0,37,0.00,SCT,,0.00,32.2,WeatherDisplay:10.37,2013-05-15 00:36:00,
2013-05-14 19:41:00,87.9,58.4,29.59,SE,136,2.3,10.4,37,0.00,SCT,,0.00,29.4,WeatherDisplay:10.37,2013-05-15 00:41:00,
2013-05-14 19:46:00,87.7,58.2,29.59,SSE,163,1.4,6.9,37,0.00,SCT,,0.00,25.2,WeatherDisplay:10.37,2013-05-15 00:46:00,
2013-05-14 19:51:00,87.5,58.0,29.60,SSE,153,0.2,1.2,37,0.00,SCT,,0.00,26.6,WeatherDisplay:10.37,2013-05-15 00:51:00,
2013-05-14 19:57:00,87.2,59.2,29.60,SSE,159,0.0,4.0,39,0.00,RA,RA,0.00,25.2,WeatherDisplay:10.37,2013-05-15 00:57:00,
2013-05-14 20:02:00,86.7,56.6,29.60,SSW,196,1.6,5.8,36,0.00,CLR,,0.00,22.4,WeatherDisplay:10.37,2013-05-15 01:02:00,
2013-05-14 20:07:00,86.3,57.0,29.60,SE,130,0.0,1.2,37,0.00,CLR,,0.00,19.6,WeatherDisplay:10.37,2013-05-15 01:07:00,
2013-05-14 20:12:00,85.9,56.6,29.60,South,188,0.7,4.6,37,0.00,CLR,,0.00,16.8,WeatherDisplay:10.37,2013-05-15 01:12:00,
2013-05-14 20:18:00,85.5,56.3,29.60,South,191,0.0,0.0,37,0.00,CLR,,0.00,12.6,WeatherDisplay:10.37,2013-05-15 01:18:00,
2013-05-14 20:23:00,85.3,56.8,29.60,ENE,59,0.0,0.0,38,0.00,CLR,,0.00,7.0,WeatherDisplay:10.37,2013-05-15 01:23:00,
2013-05-14 20:28:00,84.9,55.7,29.61,SE,127,0.7,3.5,37,0.00,CLR,,0.00,0.0,WeatherDisplay:10.37,2013-05-15 01:28:00,
2013-05-14 20:33:00,84.7,55.5,29.61,SSE,147,0.0,0.0,37,0.00,CLR,,0.00,0.0,WeatherDisplay:10.37,2013-05-15 01:33:00,
2013-05-14 20:39:00,84.7,55.5,29.61,SSE,147,0.0,0.0,37,0.00,CLR,,0.00,0.0,WeatherDisplay:10.37,2013-05-15 01:39:00,
2013-05-14 20:44:00,84.5,54.6,29.61,SE,132,0.1,2.3,36,0.00,CLR,,0.00,0.0,WeatherDisplay:10.37,2013-05-15 01:44:00,
2013-05-14 20:49:00,84.3,54.4,29.62,SE,126,0.0,1.2,36,0.00,CLR,,0.00,0.0,WeatherDisplay:10.37,2013-05-15 01:49:00,
2013-05-14 20:54:00,84.1,54.3,29.62,SSE,163,0.4,4.0,36,0.00,CLR,,0.00,0.0,WeatherDisplay:10.37,2013-05-15 01:54:00,
2013-05-14 21:00:00,83.9,55.6,29.62,South,169,0.7,1.2,38,0.00,CLR,,0.00,0.0,WeatherDisplay:10.37,2013-05-15 02:00:00,
2013-05-14 21:05:00,83.7,53.9,29.62,ESE,111,0.6,3.5,36,0.00,BKN,,0.00,0.0,WeatherDisplay:10.37,2013-05-15 02:05:00,
2013-05-14 21:10:00,83.6,53.1,29.63,South,173,0.0,0.0,35,0.00,BKN,,0.00,0.0,WeatherDisplay:10.37,2013-05-15 02:10:00,
2013-05-14 21:15:00,83.4,52.9,29.63,South,173,0.0,0.0,35,0.00,BKN,,0.00,0.0,WeatherDisplay:10.37,2013-05-15 02:15:00,
2013-05-14 21:21:00,83.2,53.5,29.64,SSE,160,0.2,3.5,36,0.00,BKN,,0.00,0.0,WeatherDisplay:10.37,2013-05-15 02:21:00,
2013-05-14 21:26:00,82.9,53.2,29.64,ESE,111,0.4,3.5,36,0.00,BKN,,0.00,0.0,WeatherDisplay:10.37,2013-05-15 02:26:00,
2013-05-14 21:31:00,82.7,53.0,29.64,SE,142,0.0,0.0,36,0.00,BKN,,0.00,0.0,WeatherDisplay:10.37,2013-05-15 02:31:00,
2013-05-14 21:36:00,82.5,52.9,29.64,SE,142,0.1,0.0,36,0.00,BKN,,0.00,0.0,WeatherDisplay:10.37,2013-05-15 02:36:00,
2013-05-14 21:42:00,82.5,52.9,29.65,SE,138,0.0,1.0,36,0.00,RA,RA,0.00,0.0,WeatherDisplay:10.37,2013-05-15 02:42:00,
2013-05-14 21:47:00,82.5,52.9,29.65,South,186,0.2,2.3,36,0.00,BKN,,0.00,0.0,WeatherDisplay:10.37,2013-05-15 02:47:00,
2013-05-14 21:52:00,82.4,53.5,29.65,SSE,156,0.0,2.0,37,0.00,RA,RA,0.00,0.0,WeatherDisplay:10.37,2013-05-15 02:52:00,
2013-05-14 21:57:00,82.1,52.5,29.65,East,96,0.0,4.0,36,0.00,RA,RA,0.00,0.0,WeatherDisplay:10.37,2013-05-15 02:57:00,
2013-05-14 22:02:00,81.8,53.0,29.66,South,184,0.0,0.0,37,0.00,BKN,,0.00,0.0,WeatherDisplay:10.37,2013-05-15 03:02:00,
2013-05-14 22:07:00,81.6,52.8,29.66,SSE,162,0.1,1.2,37,0.00,BKN,,0.00,0.0,WeatherDisplay:10.37,2013-05-15 03:07:00,
2013-05-14 22:12:00,81.4,53.4,29.66,NW,309,0.1,2.3,38,0.00,BKN,,0.00,0.0,WeatherDisplay:10.37,2013-05-15 03:12:00,
2013-05-14 22:17:00,81.2,53.2,29.67,NNW,330,1.2,2.0,38,0.00,BKN,,0.00,0.0,WeatherDisplay:10.37,2013-05-15 03:17:00,
2013-05-14 22:23:00,81.2,53.2,29.67,South,186,0.0,3.5,38,0.00,BKN,,0.00,0.0,WeatherDisplay:10.37,2013-05-15 03:23:00,
2013-05-14 22:28:00,81.2,53.2,29.67,ENE,75,0.0,1.2,38,0.00,BKN,,0.00,0.0,WeatherDisplay:10.37,2013-05-15 03:28:00,
2013-05-14 22:33:00,81.2,53.9,29.68,WSW,238,0.0,0.0,39,0.00,BKN,,0.00,0.0,WeatherDisplay:10.37,2013-05-15 03:33:00,
2013-05-14 22:38:00,81.0,53.7,29.69,West,263,0.7,1.2,39,0.00,BKN,,0.00,0.0,WeatherDisplay:10.37,2013-05-15 03:38:00,
2013-05-14 22:44:00,80.8,53.5,29.70,WNW,293,0.5,6.9,39,0.00,BKN,,0.00,0.0,WeatherDisplay:10.37,2013-05-15 03:44:00,
2013-05-14 22:49:00,80.7,53.4,29.70,WNW,293,0.0,0.0,39,0.00,BKN,,0.00,0.0,WeatherDisplay:10.37,2013-05-15 03:49:00,
2013-05-14 22:54:00,80.4,53.9,29.70,South,182,0.1,2.3,40,0.00,BKN,,0.00,0.0,WeatherDisplay:10.37,2013-05-15 03:54:00,
2013-05-14 22:59:00,80.1,54.3,29.70,South,182,0.0,0.0,41,0.00,BKN,,0.00,0.0,WeatherDisplay:10.37,2013-05-15 03:59:00,
2013-05-14 23:01:00,80.0,54.2,29.71,South,182,0.0,0.0,41,0.00,CLR,,0.00,0.0,WeatherDisplay:10.37,2013-05-15 04:01:00,
2013-05-14 23:02:00,80.0,54.2,29.71,South,182,0.0,0.0,41,0.00,CLR,,0.00,0.0,WeatherDisplay:10.37,2013-05-15 04:02:00,
2013-05-14 23:04:00,79.8,54.0,29.71,South,182,0.0,0.0,41,0.00,CLR,,0.00,0.0,WeatherDisplay:10.37,2013-05-15 04:04:00,
2013-05-14 23:09:00,79.5,54.4,29.71,WNW,288,1.4,4.0,42,0.00,CLR,,0.00,0.0,WeatherDisplay:10.37,2013-05-15 04:09:00,
2013-05-14 23:14:00,79.3,54.2,29.72,WNW,292,0.0,0.0,42,0.00,CLR,,0.00,0.0,WeatherDisplay:10.37,2013-05-15 04:14:00,
2013-05-14 23:19:00,79.1,54.0,29.72,SW,236,0.1,1.0,42,0.00,CLR,,0.00,0.0,WeatherDisplay:10.37,2013-05-15 04:19:00,
2013-05-14 23:25:00,78.9,53.9,29.72,SSE,163,0.4,2.3,42,0.00,CLR,,0.00,0.0,WeatherDisplay:10.37,2013-05-15 04:25:00,
2013-05-14 23:30:00,78.9,53.9,29.72,SSE,163,0.0,0.0,42,0.00,CLR,,0.00,0.0,WeatherDisplay:10.37,2013-05-15 04:30:00,
2013-05-14 23:35:00,78.8,54.4,29.72,SSE,163,0.0,0.0,43,0.00,CLR,,0.00,0.0,WeatherDisplay:10.37,2013-05-15 04:35:00,
2013-05-14 23:40:00,78.6,54.9,29.72,ESE,115,0.0,0.0,44,0.00,CLR,,0.00,0.0,WeatherDisplay:10.37,2013-05-15 04:40:00,
2013-05-14 23:46:00,78.4,55.3,29.72,South,178,0.2,0.0,45,0.00,CLR,,0.00,0.0,WeatherDisplay:10.37,2013-05-15 04:46:00,
2013-05-14 23:51:00,78.1,55.0,29.73,NNW,334,0.0,0.0,45,0.00,CLR,,0.00,0.0,WeatherDisplay:10.37,2013-05-15 04:51:00,
2013-05-14 23:56:00,78.0,54.9,29.73,NNW,334,0.0,0.0,45,0.00,CLR,,0.00,0.0,WeatherDisplay:10.37,2013-05-15 04:56:00,